TimeCDT,TemperatureF,Dew PointF,Humidity,Sea Level PressureIn,VisibilityMPH,Wind Direction,Wind SpeedMPH,Gust SpeedMPH,PrecipitationIn,Events,Conditions,WindDirDegrees,DateUTC
12:15 AM,40.1,39.2,97,30.12,10.0,Calm,Calm,-,N/A,,Clear,0,2013-10-10 05:15:00
12:35 AM,40.3,39.2,96,30.12,10.0,Calm,Calm,-,N/A,,Clear,0,2013-10-10 05:35:00
12:55 AM,39.6,38.5,96,30.12,10.0,Calm,Calm,-,N/A,,Clear,0,2013-10-10 05:55:00
1:15 AM,38.8,37.8,96,30.12,10.0,Calm,Calm,-,N/A,,Clear,0,2013-10-10 06:15:00
1:35 AM,39.2,38.1,96,30.12,10.0,Calm,Calm,-,N/A,,Clear,0,2013-10-10 06:35:00
1:55 AM,37.0,37.0,100,30.13,10.0,Calm,Calm,-,N/A,,Clear,0,2013-10-10 06:55:00
2:15 AM,37.9,37.4,98,30.13,10.0,Calm,Calm,-,N/A,,Clear,0,2013-10-10 07:15:00
2:35 AM,37.8,37.2,98,30.12,10.0,Calm,Calm,-,N/A,,Clear,0,2013-10-10 07:35:00
2:55 AM,37.4,37.4,100,30.12,10.0,Calm,Calm,-,N/A,,Clear,0,2013-10-10 07:55:00
3:15 AM,36.9,36.5,99,30.12,10.0,Calm,Calm,-,N/A,,Clear,0,2013-10-10 08:15:00
3:35 AM,37.4,36.7,97,30.12,10.0,Calm,Calm,-,N/A,,Clear,0,2013-10-10 08:35:00
3:55 AM,37.0,36.7,99,30.12,10.0,Calm,Calm,-,N/A,,Clear,0,2013-10-10 08:55:00
4:15 AM,36.9,36.0,97,30.13,10.0,Calm,Calm,-,N/A,,Clear,0,2013-10-10 09:15:00
4:35 AM,36.5,36.0,98,30.13,10.0,Calm,Calm,-,N/A,,Clear,0,2013-10-10 09:35:00
4:55 AM,36.5,36.1,99,30.14,10.0,Calm,Calm,-,N/A,,Clear,0,2013-10-10 09:55:00
5:15 AM,35.8,35.4,99,30.13,10.0,Calm,Calm,-,N/A,,Clear,0,2013-10-10 10:15:00
5:35 AM,35.8,35.6,99,30.13,10.0,Calm,Calm,-,N/A,,Clear,0,2013-10-10 10:35:00
5:55 AM,36.0,35.4,98,30.13,10.0,Calm,Calm,-,N/A,,Clear,0,2013-10-10 10:55:00
6:15 AM,34.7,34.5,99,30.13,10.0,Calm,Calm,-,N/A,,Clear,0,2013-10-10 11:15:00
6:35 AM,34.9,34.7,99,30.13,10.0,Calm,Calm,-,N/A,,Clear,0,2013-10-10 11:35:00
6:55 AM,34.7,34.5,99,30.13,10.0,Calm,Calm,-,N/A,,Clear,0,2013-10-10 11:55:00
7:15 AM,34.5,34.5,100,30.13,10.0,Calm,Calm,-,N/A,,Clear,0,2013-10-10 12:15:00
7:35 AM,34.3,34.3,100,30.14,10.0,Calm,Calm,-,N/A,,Clear,0,2013-10-10 12:35:00
7:55 AM,37.0,36.7,99,30.13,10.0,East,3.5,-,N/A,,Clear,100,2013-10-10 12:55:00
8:15 AM,39.2,38.5,97,30.14,10.0,Calm,Calm,-,N/A,,Clear,0,2013-10-10 13:15:00
8:35 AM,43.3,42.1,95,30.14,10.0,Calm,Calm,-,N/A,,Clear,0,2013-10-10 13:35:00
8:55 AM,46.8,43.9,90,30.14,10.0,Calm,Calm,-,N/A,,Clear,0,2013-10-10 13:55:00
9:15 AM,49.5,44.2,82,30.14,10.0,Calm,Calm,-,N/A,,Clear,0,2013-10-10 14:15:00
9:35 AM,52.3,45.3,77,30.14,10.0,Calm,Calm,-,N/A,,Clear,0,2013-10-10 14:35:00
9:55 AM,55.9,46.6,71,30.14,10.0,Calm,Calm,-,N/A,,Clear,0,2013-10-10 14:55:00
10:15 AM,59.9,47.8,64,30.13,10.0,ESE,3.5,-,N/A,,Clear,110,2013-10-10 15:15:00
10:35 AM,63.0,47.7,57,30.13,10.0,Calm,Calm,-,N/A,,Clear,0,2013-10-10 15:35:00
10:55 AM,66.7,45.7,47,30.12,10.0,SSE,6.9,-,N/A,,Clear,160,2013-10-10 15:55:00
11:15 AM,65.7,45.7,48,30.12,10.0,SSE,6.9,-,N/A,,Clear,160,2013-10-10 16:15:00
11:35 AM,67.6,45.5,45,30.11,10.0,SSE,8.1,-,N/A,,Clear,150,2013-10-10 16:35:00
11:55 AM,67.8,44.8,43,30.11,10.0,SSE,9.2,-,N/A,,Clear,150,2013-10-10 16:55:00
12:15 PM,67.8,45.0,44,30.10,10.0,SE,9.2,-,N/A,,Clear,140,2013-10-10 17:15:00
12:35 PM,68.5,44.6,42,30.10,10.0,SSE,9.2,-,N/A,,Clear,160,2013-10-10 17:35:00
12:55 PM,70.2,45.0,40,30.09,10.0,South,9.2,-,N/A,,Clear,170,2013-10-10 17:55:00
1:15 PM,72.0,45.7,39,30.09,10.0,SSE,9.2,-,N/A,,Clear,160,2013-10-10 18:15:00
1:35 PM,71.6,43.7,37,30.08,10.0,SE,6.9,-,N/A,,Clear,140,2013-10-10 18:35:00
1:55 PM,72.5,43.9,36,30.07,10.0,SSE,5.8,-,N/A,,Clear,160,2013-10-10 18:55:00
2:15 PM,72.5,43.3,35,30.06,10.0,SE,9.2,-,N/A,,Clear,130,2013-10-10 19:15:00
2:35 PM,72.9,42.8,34,30.06,10.0,SE,9.2,-,N/A,,Clear,140,2013-10-10 19:35:00
2:55 PM,73.0,42.4,33,30.05,10.0,SSE,11.5,-,N/A,,Clear,160,2013-10-10 19:55:00
3:15 PM,73.4,42.8,33,30.04,10.0,SSE,11.5,-,N/A,,Clear,150,2013-10-10 20:15:00
3:35 PM,73.4,42.3,33,30.04,10.0,SSE,8.1,-,N/A,,Clear,150,2013-10-10 20:35:00
3:55 PM,72.9,42.4,33,30.04,10.0,SSE,8.1,-,N/A,,Clear,160,2013-10-10 20:55:00
4:15 PM,72.9,44.2,36,30.03,10.0,SSE,6.9,-,N/A,,Clear,150,2013-10-10 21:15:00
4:35 PM,72.5,45.1,37,30.03,10.0,SSE,8.1,-,N/A,,Clear,160,2013-10-10 21:35:00
4:55 PM,72.5,46.4,39,30.03,10.0,SE,5.8,-,N/A,,Clear,130,2013-10-10 21:55:00
5:15 PM,72.0,45.5,39,30.03,10.0,SSE,10.4,-,N/A,,Clear,150,2013-10-10 22:15:00
5:35 PM,70.9,45.7,40,30.03,10.0,SSE,4.6,-,N/A,,Clear,150,2013-10-10 22:35:00
5:55 PM,69.1,45.5,43,30.03,10.0,SE,5.8,-,N/A,,Clear,140,2013-10-10 22:55:00
6:15 PM,66.7,45.5,46,30.02,10.0,SE,4.6,-,N/A,,Clear,130,2013-10-10 23:15:00
6:35 PM,62.8,46.2,55,30.02,10.0,SE,3.5,-,N/A,,Clear,130,2013-10-10 23:35:00
6:55 PM,58.6,46.6,64,30.02,10.0,SE,3.5,-,N/A,,Clear,130,2013-10-10 23:55:00
7:15 PM,57.4,46.8,68,30.02,10.0,ESE,5.8,-,N/A,,Clear,120,2013-10-11 00:15:00
7:35 PM,55.2,46.8,73,30.02,10.0,East,4.6,-,N/A,,Clear,100,2013-10-11 00:35:00
7:55 PM,55.8,47.1,73,30.02,10.0,ESE,4.6,-,N/A,,Clear,120,2013-10-11 00:55:00
8:15 PM,54.3,46.4,75,30.02,10.0,Calm,Calm,-,N/A,,Clear,0,2013-10-11 01:15:00
8:35 PM,51.1,45.7,82,30.02,10.0,ESE,3.5,-,N/A,,Clear,120,2013-10-11 01:35:00
8:55 PM,50.9,44.8,80,30.02,10.0,Calm,Calm,-,N/A,,Clear,0,2013-10-11 01:55:00
9:15 PM,52.2,45.9,79,30.02,10.0,Calm,Calm,-,N/A,,Clear,0,2013-10-11 02:15:00
9:35 PM,48.2,45.9,92,30.01,10.0,Calm,Calm,-,N/A,,Clear,0,2013-10-11 02:35:00
9:55 PM,48.2,46.6,94,30.01,10.0,Calm,Calm,-,N/A,,Clear,0,2013-10-11 02:55:00
10:15 PM,47.3,45.0,92,30.02,10.0,Calm,Calm,-,N/A,,Clear,0,2013-10-11 03:15:00
10:35 PM,46.6,45.3,95,30.02,10.0,Calm,Calm,-,N/A,,Clear,0,2013-10-11 03:35:00
10:55 PM,45.3,44.4,97,30.02,10.0,Calm,Calm,-,N/A,,Clear,0,2013-10-11 03:55:00
11:15 PM,46.9,45.3,94,30.02,10.0,Calm,Calm,-,N/A,,Clear,0,2013-10-11 04:15:00
11:35 PM,47.3,45.0,92,30.01,10.0,Calm,Calm,-,N/A,,Clear,0,2013-10-11 04:35:00
11:55 PM,46.8,44.8,93,30.01,10.0,Calm,Calm,-,N/A,,Clear,0,2013-10-11 04:55:00